Pocatello, ID

3:00 PM MDT on September 19, 2017 (GMT -0600)
Pocatello Regional

Weather History for KPIH - February, 2013

Change the Weather History Date:

Friday, February 8, 2013

  Actual Average Record
Temperature  
Mean Temperature 31 °F 26 °F  
Max Temperature 37 °F 35 °F 61 °F (2015)
Min Temperature 24 °F 18 °F -15 °F (1989)
Degree Days  
Heating Degree Days 34 39  
Month to date heating degree days 257 314  
Since 1 July heating degree days 4365 4561  
Cooling Degree Days 0 0  
Month to date cooling degree days 0 0  
Year to date cooling degree days 0 0  
Moisture  
Dew Point 25 °F    
Average Humidity 74    
Maximum Humidity 92    
Minimum Humidity 56    
Precipitation  
Precipitation T in 0.03 in 0.53 in (1960)
Month to date precipitation T 0.25  
Year to date precipitation 0.57 1.24  
Snow  
Snow T in - - ()
Month to date snowfall T  
Since 1 July snowfall 26.6  
Snow Depth 0.00 in    
Sea Level Pressure  
Sea Level Pressure 29.80 in    
Wind  
Wind Speed 7 mph (NE)    
Max Wind Speed 15 mph    
Max Gust Speed 18 mph    
Visibility 9 miles    
Events Snow    
T = Trace of Precipitation, MM = Missing Value Source: NWS Daily Summary

Daily Weather History Graph

Daily Weather History Graph

Search for Another Location

Airport or City:

Trip Planner

Search our weather history database for the weather conditions in past years. The results will help you decide how hot, cold, wet, or windy it might be!

Date:

Astronomy

Feb. 08, 2013 Rise Set
Actual Time 7:36 AM MST 5:53 PM MST
Civil Twilight 7:07 AM MST 6:22 PM MST
Nautical Twilight 6:33 AM MST 6:56 PM MST
Astronomical Twilight 6:00 AM MST 7:29 PM MST
Moon 6:09 AM MST (2/8) 4:30 PM MST (2/8)
Length of Visible Light 11h 15m
Length of Day
10h 16m
Waning Crescent, 3% of the Moon is Illuminated
Feb 8
Waning Crescent
Feb 10
New
Feb 17
First Quarter
Feb 25
Full
Mar 4
Last Quarter

Hourly Weather History & Observations

Time (MST) Temp. Windchill Dew Point Humidity Pressure Visibility Wind Dir Wind Speed Gust Speed Precip Events Conditions
12:53 AM 28.0 °F 24.2 °F 21.0 °F 75% 29.88 in 10.0 mi NE 3.5 mph - N/A   Clear
1:53 AM 28.0 °F 21.7 °F 24.1 °F 85% 29.89 in 10.0 mi NNW 5.8 mph - N/A   Overcast
2:53 AM 28.0 °F 24.2 °F 23.0 °F 81% 29.88 in 10.0 mi ENE 3.5 mph - N/A   Overcast
3:53 AM 27.0 °F 19.5 °F 23.0 °F 85% 29.86 in 10.0 mi NNE 6.9 mph - N/A   Clear
4:53 AM 28.0 °F 19.3 °F 19.0 °F 69% 29.85 in 10.0 mi ENE 9.2 mph - N/A   Overcast
5:53 AM 26.1 °F 19.4 °F 21.9 °F 84% 29.86 in 10.0 mi NE 5.8 mph - N/A   Clear
6:53 AM 25.0 °F 18.1 °F 19.9 °F 81% 29.87 in 10.0 mi NNE 5.8 mph - N/A   Clear
7:53 AM 26.1 °F 18.4 °F 19.9 °F 78% 29.87 in 10.0 mi ENE 6.9 mph - N/A   Clear
8:53 AM 28.9 °F 21.1 °F 19.9 °F 69% 29.86 in 10.0 mi NE 8.1 mph - N/A   Clear
9:53 AM 33.1 °F 28.7 °F 19.9 °F 59% 29.84 in 10.0 mi ENE 4.6 mph - N/A   Clear
10:53 AM 34.0 °F 27.2 °F 19.9 °F 56% 29.83 in 10.0 mi ENE 8.1 mph - N/A   Partly Cloudy
11:53 AM 35.1 °F 28.6 °F 21.9 °F 59% 29.83 in 10.0 mi NE 8.1 mph - N/A   Overcast
12:53 PM 36.0 °F 27.5 °F 23.0 °F 59% 29.79 in 10.0 mi NE 12.7 mph - N/A   Overcast
1:53 PM 36.0 °F 29.0 °F 23.0 °F 59% 29.78 in 10.0 mi NE 9.2 mph - N/A   Mostly Cloudy
2:53 PM 35.1 °F 26.9 °F 23.0 °F 61% 29.77 in 10.0 mi NE 11.5 mph - 0.00 in Snow Light Snow
3:36 PM 33.8 °F 24.8 °F 28.4 °F 81% 29.71 in 2.5 mi NNE 12.7 mph - 0.00 in Snow Light Snow
3:53 PM 32.0 °F 21.6 °F 28.9 °F 88% 29.78 in 2.5 mi NNE 15.0 mph - 0.00 in Snow Light Snow
4:53 PM 33.1 °F 23.9 °F 30.0 °F 89% 29.77 in 2.5 mi NNE 12.7 mph - 0.00 in Snow Light Snow
5:44 PM 32.0 °F 23.6 °F 30.2 °F 93% 29.71 in 6.0 mi NE 10.4 mph - N/A   Overcast
5:53 PM 32.0 °F 23.0 °F 30.0 °F 92% 29.78 in 8.0 mi NNE 11.5 mph - N/A   Overcast
6:53 PM 32.0 °F 23.0 °F 30.0 °F 92% 29.79 in 10.0 mi NE 11.5 mph - N/A   Overcast
7:53 PM 32.0 °F 26.4 °F 30.0 °F 92% 29.79 in 8.0 mi NE 5.8 mph - 0.00 in Snow Light Snow
7:55 PM 32.0 °F 27.5 °F 30.2 °F 93% 29.72 in 8.0 mi NNE 4.6 mph - 0.00 in Snow Light Snow
8:53 PM 30.9 °F - 28.9 °F 92% 29.78 in 10.0 mi Calm Calm - 0.00 in   Overcast
9:53 PM 32.0 °F - 28.0 °F 85% 29.76 in 10.0 mi Calm Calm - N/A   Overcast
10:53 PM 32.0 °F 27.5 °F 26.1 °F 79% 29.75 in 10.0 mi NE 4.6 mph - N/A   Overcast
11:53 PM 30.9 °F 27.5 °F 24.1 °F 76% 29.75 in 10.0 mi East 3.5 mph - N/A   Overcast